Retour au catalogue

STARLINK-3238

ActifCommunicationsVLEO
NORAD 49734·PAYLOAD·🇺🇸 United States

Lancé Dec 2, 2021 depuis Cape Canaveral Space Force Station

Loading…

Prochains Passages (prochaines 24 heures)

TLE

FraisSource: CelesTrak SupGP

Époque: Sep 14, 2026, 20:23 UTC

1 49734C 21115L   26257.84979167 -.00026768  00000+0 -86076-3 0  2577
2 49734  53.1584   6.2292 0001077  83.2665 177.7029 15.31716869    12

Suivez STARLINK-3238 en temps réel avec AllMySat

Download on the App Store